[[[{"header":{"parameterUnit":"kt","parameterCategory":2,"dx":1,"dy":1,"la1":30.253999710083008,"la2":30.299108505249023,"lo1":-89.0895004272461,"lo2":-89.04439544677734,"nx":28,"ny":28,"refTime":"2022-09-27T21:00:00:Z","depth":0,"parameterNumber":1,"parameterNumberName":"U-component_of_WINDS"},"data":[-1.7204,-1.7215,-1.7204,-1.7212,-1.7203,-1.7206,-1.7204,-1.72,-1.7194,-1.7196,-1.7195,-1.7185,-1.7175,-1.7171,-1.7169,-1.7165,-1.7165,-1.7176,-1.717,-1.7129,-1.7122,-1.7116,-1.7113,-1.7177,-1.7177,-1.7214,-1.7214,-1.7214,-1.7173,-1.7165,-1.7166,-1.716,-1.716,-1.7142,-1.7136,-1.7138,-1.7141,-1.7133,-1.7132,-1.7133,-1.7133,-1.7118,-1.7116,-1.712,-1.7112,-1.712,-1.712,-1.7119,-1.7074,-1.7071,-1.7127,-1.7127,-1.7127,-1.7127,-1.7127,-1.7127,-1.7114,-1.7122,-1.7112,-1.7113,-1.7106,-1.7102,-1.7107,-1.7095,-1.7096,-1.7092,-1.7079,-1.7083,-1.7073,-1.7066,-1.706,-1.7062,-1.7051,-1.7057,-1.7059,-1.7061,-1.7064,-1.7012,-1.7061,-1.7061,-1.7061,-1.7061,-1.7061,0,-1.7068,-1.7059,-1.7059,-1.7056,-1.7057,-1.7053,-1.7049,-1.7051,-1.7028,-1.703,-1.7031,-1.703,-1.7028,-1.7028,-1.7024,-1.7017,-1.6999,-1.6996,-1.7,-1.7007,-1.7013,-1.7011,-1.6939,-1.6995,-1.6995,-1.6994,-1.6994,-1.6994,-1.7008,-1.7018,-1.7003,-1.7005,-1.7,-1.7003,-1.7002,-1.6981,-1.6982,-1.6973,-1.698,-1.698,-1.6979,-1.6983,-1.6969,-1.6968,-1.6959,-1.6982,-1.6959,-1.6965,-1.696,-1.696,-1.6961,-1.6987,-1.6988,-1.6989,-1.6989,0,-1.6976,-1.6959,-1.697,-1.6954,-1.6951,-1.6962,-1.6948,-1.6954,-1.6942,-1.6949,-1.695,-1.6931,-1.6933,-1.6915,-1.6914,-1.6905,-1.6922,-1.6914,-1.6925,-1.6923,-1.6941,-1.694,-1.7005,-1.7012,-1.6946,-1.6946,-1.6947,0,-1.6918,-1.6932,-1.6906,-1.6914,-1.6928,-1.6907,-1.6921,-1.6912,-1.6904,-1.691,-1.6887,-1.6892,-1.6869,-1.6872,-1.6858,-1.687,-1.6869,-1.6863,-1.686,-1.6866,-1.6867,-1.6867,-1.6864,-1.6851,-1.685,-1.685,-1.685,0,-1.687,-1.6872,-1.6884,-1.6882,-1.6867,-1.6873,-1.6867,-1.6858,-1.6859,-1.6856,-1.6856,-1.6854,-1.6853,-1.6852,-1.6835,-1.682,-1.6848,-1.6824,-1.6842,-1.6843,-1.685,-1.685,-1.6911,-1.6849,-1.6849,-1.6849,-1.6849,0,-1.6821,-1.6819,-1.684,-1.6827,-1.6828,-1.6837,-1.6834,-1.6837,-1.6829,-1.6821,-1.6819,-1.6802,-1.681,-1.6788,-1.6799,-1.6784,-1.6785,-1.678,-1.6781,-1.6781,-1.6757,-1.6794,-1.6853,-1.6859,-1.678,-1.678,-1.6779,0,-1.677,-1.6787,-1.6769,-1.6789,-1.6795,-1.6769,-1.6777,-1.6772,-1.6762,-1.6765,-1.6754,-1.6758,-1.6737,-1.6736,-1.6744,-1.6733,-1.6752,-1.673,-1.6734,-1.6735,-1.6738,-1.6792,-1.6805,-1.6842,-1.6772,-1.6772,-1.6773,0,-1.6729,-1.6711,-1.6716,-1.6713,-1.6702,-1.6707,-1.6717,-1.6716,-1.6719,-1.6715,-1.6723,-1.6727,-1.6712,-1.6711,-1.6697,-1.6706,-1.6738,-1.6689,-1.6689,-1.6699,-1.6766,-1.6779,-1.6785,-1.6727,-1.6728,-1.6729,-1.6767,0,-1.666,-1.6667,-1.6679,-1.6674,-1.6674,-1.6686,-1.6668,-1.6671,-1.6658,-1.6648,-1.6659,-1.6651,-1.665,-1.6653,-1.6641,-1.6667,-1.666,-1.6644,-1.6622,-1.6657,-1.6669,-1.6674,-1.6605,-1.6604,-1.6603,-1.6603,0,0,-1.6616,-1.6625,-1.6606,-1.6615,-1.6615,-1.6589,-1.6603,-1.6599,-1.6594,-1.6594,-1.6581,-1.6587,-1.6581,-1.6597,-1.6606,-1.6606,-1.6609,-1.6598,-1.664,-1.6644,-1.6648,-1.6662,-1.6667,-1.6602,-1.6601,-1.6601,-1.6601,0,-1.6588,-1.6582,-1.6597,-1.6592,-1.6585,-1.6573,-1.6577,-1.6565,-1.6559,-1.6571,-1.655,-1.6554,-1.656,-1.6557,-1.6556,-1.6595,-1.658,-1.6596,-1.6624,-1.6634,-1.6639,-1.6644,-1.6658,-1.6664,-1.6599,-1.66,-1.66,0,-1.6545,-1.6536,-1.6541,-1.6539,-1.6534,-1.6541,-1.6513,-1.6521,-1.6525,-1.6497,-1.6509,-1.6502,-1.6496,-1.6514,-1.6521,-1.651,-1.6553,-1.6537,-1.654,-1.6541,-1.655,-1.6556,-1.6562,-1.649,-1.6489,-1.6489,0,0,-1.6523,-1.6529,-1.6513,-1.6532,-1.653,-1.6514,-1.6516,-1.6503,-1.6498,-1.6496,-1.6487,-1.6483,-1.6486,-1.6489,-1.6491,-1.6512,-1.651,-1.6524,-1.6529,-1.6533,-1.6536,-1.6547,-1.6553,-1.6488,-1.6488,-1.6488,0,0,-1.6512,-1.6495,-1.6483,-1.6502,-1.6498,-1.6485,-1.6497,-1.6481,-1.6482,-1.6479,-1.6458,-1.6456,-1.6472,-1.6466,-1.6453,-1.6483,-1.6461,-1.6464,-1.6486,-1.6492,-1.6497,-1.6499,-1.6423,0,0,0,0,0,-1.6475,-1.6497,-1.6486,-1.6487,-1.6485,-1.6491,-1.649,-1.6474,-1.6458,-1.6468,-1.6458,-1.6441,-1.6455,-1.6442,-1.6443,-1.6459,-1.6473,-1.6476,-1.6478,-1.6512,-1.6519,-1.6524,0,0,0,0,0,0,-1.6475,-1.6476,-1.6486,-1.6473,-1.6473,-1.649,-1.646,-1.6456,-1.6457,-1.6453,-1.6443,-1.6441,-1.6427,-1.644,-1.6441,-1.6457,-1.6423,-1.6474,-1.6476,-1.6478,-1.6514,-1.652,-1.6524,0,0,0,0,0,-1.6475,-1.6475,-1.6476,-1.6473,-1.6472,-1.6456,-1.6459,-1.6455,-1.6456,-1.6441,-1.6438,-1.6443,-1.6428,-1.6428,-1.6441,-1.6457,-1.6422,-1.6423,-1.6475,-1.6477,-1.6479,-1.6517,0,0,0,0,0,0,-1.6475,-1.6472,-1.6476,-1.6475,-1.6463,-1.6454,-1.6452,-1.6455,-1.6443,-1.644,-1.644,-1.6437,-1.6429,-1.6428,-1.6428,-1.6458,-1.6421,-1.6422,-1.6422,-1.6477,-1.6478,-1.6479,0,0,0,0,0,0,-1.6472,-1.6472,-1.6476,-1.6464,-1.6462,-1.6453,-1.6452,-1.6461,-1.6443,-1.6442,-1.644,-1.6439,-1.6429,-1.6429,-1.6429,-1.6444,-1.6421,-1.6421,-1.6422,-1.6422,-1.6478,-1.6479,0,0,0,0,0,0,-1.6471,-1.6471,-1.6464,-1.6463,-1.6461,-1.6451,-1.6461,-1.646,-1.6433,-1.6443,-1.6431,-1.6429,-1.643,-1.6429,-1.643,-1.6444,-1.6444,-1.6421,-1.6421,-1.6421,-1.6421,0,0,0,0,0,0,0,-1.6471,-1.6475,-1.6481,-1.6462,-1.646,-1.6468,-1.6468,-1.6467,-1.6433,-1.6432,-1.6431,-1.643,-1.6418,-1.6418,-1.6419,-1.6445,0,0,-1.6421,-1.6421,0,0,0,0,0,0,0,0,-1.6475,-1.6475,-1.6481,-1.648,-1.648,-1.6468,-1.6468,-1.6468,-1.6433,-1.6432,-1.6431,-1.643,-1.6418,-1.6418,-1.6419,0,0,0,0,0,0,0,0,0,0,0,0,0,0,0,-1.6481,-1.648,0,-1.6468,-1.6468,-1.6468,-1.6433,-1.6432,-1.6431,-1.6431,-1.6418,-1.6419,-1.6419,0,0,0,0,0,0,0,0,0,0,0,0,0,0,0,0,0,0,0,0,0,0,0,0,0,0,0,0,0,0,0,0,0,0,0,0,0,0,0,0,0,0,0,0,0,0,0,0,0,0,0,0,0,0,0,0,0,0,0,0,0,0,0,0,0,0,0,0,0]}],[{"header":{"parameterUnit":"kt","parameterCategory":2,"dx":1,"dy":1,"la1":30.253999710083008,"la2":30.299108505249023,"lo1":-89.0895004272461,"lo2":-89.04439544677734,"nx":28,"ny":28,"refTime":"2022-09-27T21:00:00:Z","depth":0,"parameterNumber":2,"parameterNumberName":"V-component_of_WINDS"},"data":[-15.4479,-15.4641,-15.4643,-15.4826,-15.4858,-15.4982,-15.5026,-15.5083,-15.5126,-15.5271,-15.5353,-15.5366,-15.5406,-15.5501,-15.5587,-15.559,-15.5627,-15.5685,-15.5678,-15.5421,-15.5385,-15.5351,-15.5315,-15.5693,-15.5693,-15.5945,-15.5947,-15.5949,-15.4296,-15.4332,-15.4429,-15.4523,-15.4606,-15.4552,-15.462,-15.4692,-15.4802,-15.4856,-15.4937,-15.5062,-15.5158,-15.5177,-15.5269,-15.534,-15.5317,-15.5365,-15.536,-15.5366,-15.5092,-15.5054,-15.5382,-15.5382,-15.5382,-15.5382,-15.5382,-15.5382,-15.3964,-15.406,-15.4118,-15.4223,-15.427,-15.4332,-15.4421,-15.4437,-15.4528,-15.4627,-15.4605,-15.4728,-15.4778,-15.4885,-15.4918,-15.5012,-15.4957,-15.5007,-15.502,-15.5033,-15.505,-15.4691,-15.5026,-15.5025,-15.5024,-15.5023,-15.5023,0,-15.372,-15.3716,-15.3807,-15.3901,-15.3976,-15.4046,-15.4109,-15.4164,-15.4145,-15.4221,-15.4329,-15.439,-15.4509,-15.4608,-15.4691,-15.4715,-15.466,-15.4653,-15.4688,-15.4702,-15.4705,-15.4707,-15.4261,-15.4643,-15.4639,-15.4637,-15.4635,-15.4634,-15.3386,-15.3496,-15.3555,-15.3619,-15.3654,-15.3756,-15.3817,-15.3792,-15.3856,-15.3927,-15.401,-15.4109,-15.4187,-15.4356,-15.4365,-15.4452,-15.4426,-15.4573,-15.4438,-15.4448,-15.4429,-15.4424,-15.4435,-15.4599,-15.4604,-15.4607,-15.461,0,-15.3197,-15.3196,-15.3366,-15.341,-15.3425,-15.3541,-15.3577,-15.3668,-15.367,-15.3796,-15.3823,-15.3825,-15.3928,-15.3914,-15.4027,-15.4015,-15.4203,-15.4174,-15.4187,-15.4181,-15.4312,-15.43,-15.4736,-15.4792,-15.4399,-15.4403,-15.4406,0,-15.2911,-15.3055,-15.3044,-15.3143,-15.3302,-15.3273,-15.343,-15.3447,-15.349,-15.3588,-15.3525,-15.3618,-15.3583,-15.3674,-15.3657,-15.3807,-15.3827,-15.3827,-15.3821,-15.3834,-15.3834,-15.3865,-15.3847,-15.3801,-15.3798,-15.3796,-15.3795,0,-15.2617,-15.2778,-15.2938,-15.2974,-15.3033,-15.3108,-15.3135,-15.3181,-15.3238,-15.3309,-15.3346,-15.343,-15.3476,-15.3541,-15.3519,-15.3428,-15.3701,-15.3571,-15.3701,-15.3702,-15.3761,-15.3757,-15.4149,-15.3792,-15.3791,-15.379,-15.379,0,-15.2384,-15.2462,-15.2693,-15.2741,-15.2783,-15.2886,-15.297,-15.3054,-15.3107,-15.3103,-15.3158,-15.3113,-15.3241,-15.3115,-15.3291,-15.318,-15.3228,-15.324,-15.3248,-15.3258,-15.3117,-15.3341,-15.3714,-15.3753,-15.3269,-15.3265,-15.3261,0,-15.205,-15.2281,-15.2257,-15.2476,-15.258,-15.2504,-15.2617,-15.2665,-15.2671,-15.2757,-15.276,-15.2858,-15.276,-15.2788,-15.2878,-15.2884,-15.3028,-15.2864,-15.2986,-15.2991,-15.2977,-15.3321,-15.3381,-15.3635,-15.3205,-15.3211,-15.3215,0,-15.1789,-15.186,-15.19,-15.194,-15.2,-15.2085,-15.2215,-15.2306,-15.2366,-15.2424,-15.2532,-15.2667,-15.2599,-15.2645,-15.2615,-15.2709,-15.2929,-15.2622,-15.2622,-15.2679,-15.3175,-15.3232,-15.3275,-15.2888,-15.2895,-15.29,-15.3171,0,-15.1441,-15.1555,-15.1664,-15.175,-15.1814,-15.1948,-15.1933,-15.2001,-15.1968,-15.1969,-15.2125,-15.2155,-15.2244,-15.2286,-15.2252,-15.2472,-15.2432,-15.2357,-15.2231,-15.2456,-15.2545,-15.2581,-15.2101,-15.2097,-15.2094,-15.2091,0,0,-15.1122,-15.1284,-15.1251,-15.1377,-15.1428,-15.1345,-15.149,-15.1528,-15.1609,-15.1645,-15.1576,-15.177,-15.1797,-15.1986,-15.2055,-15.209,-15.2127,-15.2048,-15.2349,-15.2378,-15.2405,-15.25,-15.2538,-15.2086,-15.2084,-15.2083,-15.2082,0,-15.0992,-15.1027,-15.1172,-15.1212,-15.127,-15.1264,-15.1299,-15.134,-15.1347,-15.1498,-15.1424,-15.1514,-15.1668,-15.1707,-15.1747,-15.2026,-15.1962,-15.2053,-15.221,-15.2317,-15.2351,-15.238,-15.248,-15.2517,-15.2074,-15.2075,-15.2075,0,-15.0733,-15.0766,-15.0834,-15.0947,-15.0982,-15.1089,-15.0956,-15.1073,-15.1151,-15.1047,-15.1198,-15.1212,-15.1261,-15.1442,-15.1521,-15.1459,-15.1814,-15.1697,-15.1716,-15.1724,-15.1827,-15.1867,-15.1902,-15.1435,-15.1432,-15.1431,0,0,-15.0622,-15.0727,-15.075,-15.0917,-15.0945,-15.0938,-15.0991,-15.0963,-15.1012,-15.1031,-15.1047,-15.1094,-15.1183,-15.1242,-15.1324,-15.1524,-15.1532,-15.1619,-15.1649,-15.1674,-15.1695,-15.1804,-15.1844,-15.1422,-15.1422,-15.1422,0,0,-15.0568,-15.0604,-15.0562,-15.0753,-15.0804,-15.0835,-15.0937,-15.0885,-15.0957,-15.0939,-15.0893,-15.0903,-15.1071,-15.1086,-15.0981,-15.1279,-15.1155,-15.1179,-15.1263,-15.1301,-15.133,-15.1323,-15.0844,0,0,0,0,0,-15.0427,-15.0599,-15.0562,-15.0591,-15.073,-15.0857,-15.0874,-15.0842,-15.0757,-15.0838,-15.0843,-15.0771,-15.102,-15.0926,-15.0954,-15.1071,-15.1319,-15.1337,-15.1354,-15.1509,-15.1549,-15.1582,0,0,0,0,0,0,-15.0438,-15.0475,-15.0557,-15.0596,-15.0627,-15.0851,-15.0699,-15.0695,-15.0747,-15.0732,-15.0772,-15.0772,-15.0744,-15.0909,-15.0935,-15.1047,-15.0835,-15.1326,-15.1342,-15.1356,-15.1523,-15.1555,-15.1583,0,0,0,0,0,-15.0447,-15.0476,-15.0708,-15.0593,-15.062,-15.0619,-15.0692,-15.0687,-15.0727,-15.0734,-15.0731,-15.0698,-15.0748,-15.0768,-15.0924,-15.1036,-15.0817,-15.0826,-15.1336,-15.1348,-15.1359,-15.1539,0,0,0,0,0,0,-15.0453,-15.0472,-15.0712,-15.0719,-15.0525,-15.0605,-15.0617,-15.0681,-15.0724,-15.0724,-15.0656,-15.0643,-15.0753,-15.0767,-15.0783,-15.1035,-15.0802,-15.0812,-15.0818,-15.1345,-15.1355,-15.1364,0,0,0,0,0,0,-15.0455,-15.0478,-15.0716,-15.0632,-15.0629,-15.0593,-15.0604,-15.073,-15.0726,-15.0643,-15.0634,-15.065,-15.0729,-15.0768,-15.078,-15.0978,-15.079,-15.08,-15.0807,-15.0811,-15.1353,-15.1361,0,0,0,0,0,0,-15.0464,-15.0484,-15.063,-15.0628,-15.0624,-15.0698,-15.0704,-15.0846,-15.0658,-15.0643,-15.064,-15.0632,-15.0732,-15.0742,-15.0778,-15.0972,-15.0977,-15.0791,-15.0797,-15.0802,-15.0805,0,0,0,0,0,0,0,-15.0471,-15.035,-15.0673,-15.0624,-15.0621,-15.0782,-15.0784,-15.0786,-15.0657,-15.0649,-15.0642,-15.0635,-15.0736,-15.0746,-15.0757,-15.0968,0,0,-15.079,-15.0794,0,0,0,0,0,0,0,0,-15.0341,-15.0348,-15.0673,-15.0674,-15.0676,-15.0782,-15.0784,-15.0785,-15.0655,-15.0649,-15.0644,-15.0638,-15.0739,-15.0747,-15.0756,0,0,0,0,0,0,0,0,0,0,0,0,0,0,0,-15.0673,-15.0674,0,-15.0783,-15.0784,-15.0785,-15.0655,-15.065,-15.0645,-15.064,-15.0741,-15.0748,-15.0755,0,0,0,0,0,0,0,0,0,0,0,0,0,0,0,0,0,0,0,0,0,0,0,0,0,0,0,0,0,0,0,0,0,0,0,0,0,0,0,0,0,0,0,0,0,0,0,0,0,0,0,0,0,0,0,0,0,0,0,0,0,0,0,0,0,0,0,0,0]}]]]